Tracking 20369 objects as of 18-Feb-2020
HD Live streaming from Space Station
objects crossing your sky now

COSMOS 1304

Track COSMOS 1304 now!
10-day predictions
COSMOS 1304 is classified as:


NORAD ID: 12803
Int'l Code: 1981-087A
Perigee: 911.5 km
Apogee: 977.7 km
Inclination: 82.9 °
Period: 103.8 minutes
Semi major axis: 7315 km
RCS: 1.592 m2 (large)
Launch date: September 4, 1981
Source: Commonwealth of Independent States (former USSR) (CIS)
Launch site: PLESETSK MISSILE AND SPACE COMPLEX (PKMTR)
aabbcc
Your satellite tracking list
Your tracking list is empty




NASA's NSSDC Master Catalog

Two Line Element Set (TLE):
1 12803U 81087A   20048.61045311 +.00000047 +00000-0 +26841-4 0  9999
2 12803 082.9382 355.3389 0045264 331.3395 028.5281 13.87492851322339
Source of the keplerian elements: AFSPC